Time+07,TemperatureF,Dew PointF,Humidity,Sea Level PressureIn,VisibilityMPH,Wind Direction,Wind SpeedMPH,Gust SpeedMPH,PrecipitationIn,Events,Conditions,WindDirDegrees,DateUTC
12:00 AM,78.8,75.2,89,29.92,5.6,Calm,Calm,-,N/A,,Scattered Clouds,0,2013-06-25 17:00:00
12:30 AM,78.8,75.2,89,29.89,5.6,Calm,Calm,-,N/A,,Mostly Cloudy,0,2013-06-25 17:30:00
1:00 AM,79,76,89,29.86,6,Calm,Calm,,,,Scattered Clouds,,2013-06-25 18:00:00
1:00 AM,78.8,75.2,89,29.89,5.6,Calm,Calm,-,N/A,,Mostly Cloudy,0,2013-06-25 18:00:00
1:30 AM,77.0,75.2,94,29.89,5.6,Calm,Calm,-,N/A,,Mostly Cloudy,0,2013-06-25 18:30:00
2:00 AM,77.0,75.2,94,29.86,5.6,Calm,Calm,-,N/A,,Mostly Cloudy,0,2013-06-25 19:00:00
2:30 AM,77.0,75.2,94,29.86,5.6,Calm,Calm,-,N/A,,Mostly Cloudy,0,2013-06-25 19:30:00
3:00 AM,77.0,75.2,94,29.86,5.6,Calm,Calm,-,N/A,,Mostly Cloudy,0,2013-06-25 20:00:00
3:30 AM,77.0,75.2,94,29.86,5.6,Calm,Calm,-,N/A,,Mostly Cloudy,0,2013-06-25 20:30:00
4:00 AM,77.0,75.2,94,29.86,5.0,Calm,Calm,-,N/A,,Mostly Cloudy,0,2013-06-25 21:00:00
5:00 AM,77.0,75.2,94,29.86,5.0,Calm,Calm,-,N/A,,Mostly Cloudy,0,2013-06-25 22:00:00
5:30 AM,77.0,75.2,94,29.86,5.0,Calm,Calm,-,N/A,,Mostly Cloudy,0,2013-06-25 22:30:00
6:30 AM,77.0,75.2,94,29.86,5.0,Calm,Calm,-,N/A,,Mostly Cloudy,0,2013-06-25 23:30:00
7:00 AM,83,75,72,29.84,6,Calm,Calm,,,,Mist,,2013-06-26 00:00:00
7:00 AM,78.8,75.2,89,29.86,5.0,Calm,Calm,-,N/A,,Mostly Cloudy,0,2013-06-26 00:00:00
7:30 AM,78.8,77.0,94,29.89,5.6,Variable,1.2,-,N/A,,Mostly Cloudy,0,2013-06-26 00:30:00
8:00 AM,82.4,75.2,79,29.89,5.6,Variable,4.6,-,N/A,,Mostly Cloudy,0,2013-06-26 01:00:00
8:30 AM,84.2,75.2,74,29.89,5.0,West,8.1,-,N/A,,Mostly Cloudy,270,2013-06-26 01:30:00
9:00 AM,84.2,75.2,74,29.92,5.0,West,9.2,-,N/A,,Mostly Cloudy,270,2013-06-26 02:00:00
9:30 AM,86.0,75.2,70,29.92,5.0,West,10.4,-,N/A,,Mostly Cloudy,260,2013-06-26 02:30:00
10:00 AM,84.2,75.2,74,29.92,5.0,West,9.2,-,N/A,,Mostly Cloudy,270,2013-06-26 03:00:00
10:30 AM,86.0,75.2,70,29.92,5.0,West,9.2,-,N/A,,Mostly Cloudy,260,2013-06-26 03:30:00
11:00 AM,86.0,75.2,70,29.92,5.0,West,9.2,-,N/A,,Mostly Cloudy,260,2013-06-26 04:00:00
11:30 AM,86.0,75.2,70,29.92,5.0,WSW,8.1,-,N/A,,Mostly Cloudy,250,2013-06-26 04:30:00
12:00 PM,87.8,75.2,66,29.89,5.0,WSW,9.2,-,N/A,,Mostly Cloudy,250,2013-06-26 05:00:00
12:30 PM,87.8,75.2,66,29.89,5.0,WSW,9.2,-,N/A,,Mostly Cloudy,250,2013-06-26 05:30:00
1:00 PM,88,76,61,29.86,5,West,5.8,,,,Mist,270,2013-06-26 06:00:00
1:00 PM,86.0,75.2,70,29.89,5.0,West,10.4,-,N/A,,Mostly Cloudy,280,2013-06-26 06:00:00
1:30 PM,86.0,75.2,70,29.86,5.0,West,10.4,-,N/A,,Mostly Cloudy,260,2013-06-26 06:30:00
2:00 PM,86.0,75.2,70,29.86,5.0,West,11.5,-,N/A,,Mostly Cloudy,260,2013-06-26 07:00:00
2:30 PM,86.0,75.2,70,29.86,5.0,West,9.2,-,N/A,,Mostly Cloudy,260,2013-06-26 07:30:00
3:00 PM,86.0,75.2,70,29.86,5.0,West,9.2,-,N/A,,Mostly Cloudy,270,2013-06-26 08:00:00
3:30 PM,87.8,75.2,66,29.83,5.0,West,10.4,-,N/A,,Mostly Cloudy,270,2013-06-26 08:30:00
4:00 PM,86.0,75.2,70,29.83,1.9,West,11.5,-,N/A,Rain,Rain,260,2013-06-26 09:00:00
4:30 PM,80.6,75.2,84,29.83,4.3,NNW,4.6,-,N/A,Rain,Light Rain,340,2013-06-26 09:30:00
5:00 PM,84.2,77.0,79,29.83,5.0,Variable,4.6,-,N/A,,Mostly Cloudy,0,2013-06-26 10:00:00
5:30 PM,84.2,75.2,74,29.83,5.0,WSW,4.6,-,N/A,,Mostly Cloudy,240,2013-06-26 10:30:00
6:00 PM,82.4,75.2,79,29.83,4.3,WSW,5.8,-,N/A,,Mostly Cloudy,240,2013-06-26 11:00:00
6:30 PM,82.4,73.4,74,29.83,5.0,WSW,5.8,-,N/A,,Mostly Cloudy,240,2013-06-26 11:30:00
7:00 PM,83,76,74,29.81,6,WSW,4.6,,,Rain,Light Rain,240,2013-06-26 12:00:00
7:00 PM,80.6,73.4,79,29.86,5.0,SW,4.6,-,N/A,,Mostly Cloudy,230,2013-06-26 12:00:00
7:30 PM,80.6,75.2,84,29.86,5.0,SSW,3.5,-,N/A,,Mostly Cloudy,210,2013-06-26 12:30:00
8:00 PM,82.4,75.2,79,29.89,5.0,West,5.8,-,N/A,,Mostly Cloudy,260,2013-06-26 13:00:00
8:30 PM,82.4,75.2,79,29.89,5.0,West,8.1,-,N/A,,Mostly Cloudy,260,2013-06-26 13:30:00
9:00 PM,82.4,75.2,79,29.89,5.0,SW,4.6,-,N/A,,Mostly Cloudy,220,2013-06-26 14:00:00
9:30 PM,82.4,75.2,79,29.92,5.0,West,9.2,-,N/A,,Mostly Cloudy,280,2013-06-26 14:30:00
10:00 PM,82.4,75.2,79,29.92,5.0,West,8.1,-,N/A,,Mostly Cloudy,280,2013-06-26 15:00:00
10:30 PM,80.6,73.4,79,29.92,5.0,NW,6.9,-,N/A,,Mostly Cloudy,310,2013-06-26 15:30:00
11:00 PM,78.8,73.4,83,29.92,5.0,Calm,Calm,-,N/A,,Mostly Cloudy,0,2013-06-26 16:00:00
11:30 PM,77.0,73.4,89,29.92,5.0,Calm,Calm,-,N/A,,Mostly Cloudy,0,2013-06-26 16:30:00